Regional Weather Roundup
Issued by NWS Northern Indiana

Home | Current Version | Previous Version | Graphics & Text | Print | Product List | Glossary On
Versions: 1 2 3 4 5 6 7 8 9 10 11 12 13 14 15 16 17 18 19 20 21 22 23 24 25 26 27 28 29 30 31 32 33 34 35 36 37 38 39 40 41 42 43 44 45 46 47 48 49 50
000
ASUS43 KIWX 280400
RWRIWX

KIWX WEATHER ROUNDUP
NATIONAL WEATHER SERVICE NORTHERN INDIANA
1200 AM EDT FRI APR 28 2017

NOTE: "FAIR" INDICATES FEW OR NO CLOUDS BELOW 12,000 FEET WITH NO
SIGNIFICANT WEATHER AND/OR OBSTRUCTIONS TO VISIBILITY.

* THESE STATIONS ARE NOT UNDER NWS QUALITY CONTROL. THEY ALSO MAY NOT
  REPORT WEATHER SUCH AS PRECIPITATION OR FOG.

INZ001>027-280500-
NORTHERN INDIANA

CITY           SKY/WX    TMP DP  RH WIND       PRES   REMARKS
SOUTH BEND     CLOUDY    47  40  76 SW13      29.88R
GOSHEN         CLOUDY    48  37  65 SW12      29.87R
MONTICELLO*    CLOUDY    48  39  71 SW6       29.89F
ANGOLA*        CLOUDY    48  39  71 W14       29.85R
FORT WAYNE     CLOUDY    50  42  74 W15       29.88R
PERU/GRISSOM   CLOUDY    48  44  85 W9        29.88R

$$
INZ028>050-280500-
CENTRAL INDIANA

CITY           SKY/WX    TMP DP  RH WIND       PRES   REMARKS
LAFAYETTE      CLOUDY    48  42  80 W3        29.90S
KOKOMO*        CLOUDY    49  44  83 NW8       29.90R
MUNCIE*        CLEAR     48  44  86 W3        29.89R
INDIANAPOLIS   PTCLDY    48  42  80 W8        29.90R

$$
MIZ043>046-050>051-056>058-064>065-071>073-077>080-280500-
SOUTHWEST LOWER MICHIGAN

CITY           SKY/WX    TMP DP  RH WIND       PRES   REMARKS
BATTLE CREEK   CLOUDY    48  40  73 SW12      29.82R
BENTON HARBOR  CLOUDY    46  37  71 SW14G23   29.85R
HILLSDALE*     CLOUDY    46  37  71 SW12      29.82S
HOLLAND        CLOUDY    44  36  73 W18G24    29.82R
GRAND RAPIDS   CLOUDY    44  39  82 W16G24    29.80R
KALAMAZOO      CLOUDY    48  38  68 W13       29.83R
STURGIS*       CLOUDY    47  38  71 W12G17    29.84R
THREE RIVERS*  CLOUDY    48  39  71 W9        29.85R

$$
OHZ001>008-015>018-024>025-280500-
NORTHWEST OHIO

CITY           SKY/WX    TMP DP  RH WIND       PRES   REMARKS
DEFIANCE       CLOUDY    50  42  74 SW9       29.86R
FINDLAY        CLEAR     49  42  77 W8        29.85R
TOLEDO EXPRESS CLOUDY    51  43  74 W12       29.84R
TOLEDO METCALF CLEAR     52  43  71 W15G24    29.85R
LIMA           CLEAR     49  45  86 W10       29.86S

$$
AND FOR LAKE MICHIGAN COASTAL AND OPEN LAKE BUOY OBSERVATIONS

STATION/POSITION TEMP    WIND        PRES    VSBY  WAVE
                 AIR SEA DIR/SP/G                  HT/PER
                 (F)     (DEG/KT/KT) (MB)    (MI)  (FT/S)
CALUMET HARBOR    46     200/  8/ 10 1010.7R
MICHIGAN CITY     47     230/ 19/ 21   N/A
BURNS HARBOR      48     230/  9/ 11 1012.2R
SOUTH LAKE BUOY   43 41  270/ 14/ 16 1009.2          3/ 5
4 MI NW BRIDGMAN  46 48  250/ 17/ 21 1011.9R         4/ 4
MICHIGAN CITY     47 47                N/A           3/ 4

$$
&&



USA.gov is the U.S. government's official web portal to all federal, state and local government web resources and services.